Regional Weather Roundup
Issued by NWS

Home | Current Version | Previous Version | Text Only | Print | Product List | Glossary Off
Versions: 1 2 3 4 5 6 7 8 9 10 11 12 13 14 15 16 17 18 19 20 21 22 23 24 25 26 27 28 29 30 31 32 33 34 35 36 37 38 39 40 41 42 43 44 45 46 47 48 49 50

000
ASUS43 KIND 211000
RWRIN

WEATHER ROUNDUP FOR INDIANA
NATIONAL WEATHER SERVICE INDIANAPOLIS IN
600 AM EDT FRI JUL 21 2017

NOTE: "FAIR" INDICATES FEW OR NO CLOUDS BELOW 12,000 FEET WITH NO
SIGNIFICANT WEATHER AND/OR OBSTRUCTIONS TO VISIBILITY.

* - STATION DOES NOT REPORT WEATHER SUCH AS PRECIPITATION OR FOG.

+ - STATION NOT QUALITY CONTROLLED BY THE NATIONAL WEATHER SERVICE.
    USE DATA WITH CAUTION...ESPECIALLY DEWPOINT AND RELATIVE
    HUMIDITY OBSERVATIONS.

INZ001>003-010>013-019-020-211100-
NORTHWEST INDIANA

CITY           SKY/WX    TMP DP  RH WIND       PRES   REMARKS
GARY /AIRPORT/ MOCLDY    73  70  88 CALM      29.99R
MICHIGAN CITY+ CLOUDY    68  68 100 CALM      30.00S
MONTICELLO +   LGT RAIN  70  68  95 W3        30.02F
RENSSELAER +   RAIN      70  68  94 SE5       30.01F

$$

LMZ046-743>745-211100-
SOUTHERN LAKE MICHIGAN

STATION/POSITION TIME  TEMP    WIND        PRES    WAVE
                       AIR SEA DIR/SP/G            HT
                 (UTC) (F)     (DEG/KT/KT) (MB)    (FT)
BURNS HARBOR     0940   76     140/  2/  6 1015.6F
MICHIGAN CITY    0930   74      90/  3/  4   N/A
5NW MICH CITY    0950   74 74  130/  6/  6   N/A     1

$$

INZ004-005-014>016-021>024-211100-
NORTH CENTRAL INDIANA

CITY           SKY/WX    TMP DP  RH WIND       PRES   REMARKS
GOSHEN         MOCLDY    68  65  90 CALM      30.01R
PERU/GRISSOM   TSTM      72  72 100 N9        30.02F FOG
SOUTH BEND     CLOUDY    69  68  96 S3        30.02R

$$

INZ006>009-017-018-025>027-211100-
NORTHEAST INDIANA

CITY           SKY/WX    TMP DP  RH WIND       PRES   REMARKS
ANGOLA *+      CLEAR     68  61  77 CALM      29.98S
FORT WAYNE     CLOUDY    73  70  90 N6        29.99R
KENDALLVILLE + MOCLDY    68  68 100 CALM      30.01R FOG

$$

INZ028-029-035-036-043>045-051>053-211100-
WEST CENTRAL INDIANA

CITY           SKY/WX    TMP DP  RH WIND       PRES   REMARKS
LAFAYETTE      LGT RAIN  70  69  97 NE9       30.01F
TERRE HAUTE    CLOUDY    79  73  82 MISG      30.01R

$$

INZ030>032-037>040-046>048-054>057-064-065-211100-
CENTRAL INDIANA

CITY           SKY/WX    TMP DP  RH WIND       PRES   REMARKS
INDIANAPOLIS   CLOUDY    78  74  87 NW22G29   30.01R THUNDER
-EAGLE CREEK   TSTM      76  71  85 N17G26    30.01R
KOKOMO +       RAIN      71  70  96 NW10      30.05R
MT COMFORT *+  CLOUDY    75  73  94 CALM      29.99S
SHELBYVILLE    MOCLDY    77  72  84 CALM      29.98R

$$

INZ033-034-041-042-049-050-058-059-211100-
EAST CENTRAL INDIANA

CITY           SKY/WX    TMP DP  RH WIND       PRES   REMARKS
MUNCIE         MOCLDY    79  75  87 W5        29.98R
RICHMOND +     CLOUDY    73  72  94 W7        30.01R

$$

INZ060-061-067>069-081>083-085>088-211100-
SOUTHWEST INDIANA

CITY           SKY/WX    TMP DP  RH WIND       PRES   REMARKS
EVANSVILLE     PTCLDY    78  73  84 SW5       29.99S
HUNTINGBURG *+ CLOUDY    75  73  93 S3        30.00S

$$

INZ062-063-066-070>080-084-089>092-211100-
SOUTH CENTRAL AND SOUTHEAST INDIANA

CITY           SKY/WX    TMP DP  RH WIND       PRES   REMARKS
BLOOMINGTON    CLOUDY    78  72  81 W3        30.00R
MADISON *+     PTCLDY    73  72  94 CALM      30.02S
SEYMOUR +      PTCLDY    75  73  94 CALM      29.99R

$$





USA.gov is the U.S. government's official web portal to all federal, state and local government web resources and services.